| time (UTC) | temp F | wind direction | speed MPH | gust MPH | rain 1hr in | rain 24hr in | rain mn in | humidity % | barometer mb |
| 20260505083114 | 97 | 40 | 2.0 | 2.0 | 0.00 | 0.00 | 0.21 | 51 | 1005.0 |
| 20260505082614 | 99 | 53 | 1.0 | 1.0 | 0.00 | 0.00 | 0.21 | 44 | 1006.0 |
| 20260505082114 | 97 | 65 | 0.0 | 1.0 | 0.00 | 0.00 | 0.21 | 47 | 1006.0 |
| 20260505081614 | 96 | 29 | 1.0 | 3.0 | 0.00 | 0.00 | 0.21 | 51 | 1006.0 |
| 20260505081114 | 96 | 43 | 5.0 | 6.0 | 0.00 | 0.00 | 0.21 | 50 | 1006.0 |
| 20260505080615 | 96 | 46 | 3.0 | 3.0 | 0.00 | 0.00 | 0.21 | 49 | 1006.0 |
| 20260505080115 | 95 | 58 | 1.0 | 1.0 | 0.00 | 0.00 | 0.21 | 54 | 1006.0 |
| 20260505075615 | 95 | 59 | 3.0 | 5.0 | 0.00 | 0.00 | 0.21 | 56 | 1006.0 |
| 20260505075118 | 94 | 40 | 3.0 | 3.0 | 0.00 | 0.00 | 0.21 | 59 | 1006.0 |
| 20260505074615 | 94 | 36 | 2.0 | 2.0 | 0.00 | 0.00 | 0.21 | 58 | 1006.0 |
| 20260505073647 | 95 | 60 | 2.0 | 3.0 | 0.00 | 0.00 | 0.21 | 57 | 1006.0 |
| 20260505073114 | 95 | 44 | 1.0 | 1.0 | 0.00 | 0.00 | 0.21 | 57 | 1006.0 |
| 20260505072615 | 94 | 46 | 2.0 | 2.0 | 0.00 | 0.00 | 0.21 | 58 | 1006.0 |
| 20260505072114 | 94 | 36 | 5.0 | 6.0 | 0.00 | 0.00 | 0.21 | 57 | 1007.0 |
| 20260505071614 | 94 | 31 | 3.0 | 3.0 | 0.00 | 0.00 | 0.21 | 60 | 1007.0 |
| 20260505071115 | 94 | 23 | 5.0 | 6.0 | 0.00 | 0.00 | 0.21 | 57 | 1007.0 |
| 20260505070615 | 94 | 27 | 2.0 | 5.0 | 0.00 | 0.00 | 0.21 | 57 | 1007.0 |
| 20260505070115 | 94 | 55 | 3.0 | 3.0 | 0.00 | 0.00 | 0.21 | 57 | 1007.0 |
| 20260505065614 | 94 | 64 | 3.0 | 5.0 | 0.00 | 0.00 | 0.21 | 54 | 1007.0 |
| 20260505065114 | 93 | 65 | 1.0 | 2.0 | 0.00 | 0.00 | 0.21 | 56 | 1007.0 |
| 20260505064615 | 94 | 63 | 2.0 | 2.0 | 0.00 | 0.00 | 0.21 | 57 | 1007.0 |
| 20260505064114 | 93 | 69 | 1.0 | 2.0 | 0.00 | 0.00 | 0.21 | 55 | 1007.0 |
| 20260505063615 | 93 | 53 | 3.0 | 3.0 | 0.00 | 0.00 | 0.21 | 58 | 1008.0 |
| 20260505063115 | 93 | 60 | 4.0 | 5.0 | 0.00 | 0.00 | 0.21 | 56 | 1008.0 |
| 20260505062615 | 92 | 29 | 3.0 | 3.0 | 0.00 | 0.00 | 0.21 | 57 | 1008.0 |
| 20260505062115 | 93 | 9 | 6.0 | 7.0 | 0.00 | 0.00 | 0.21 | 57 | 1008.0 |
| 20260505061614 | 91 | 42 | 2.0 | 3.0 | 0.00 | 0.00 | 0.21 | 59 | 1008.0 |
| 20260505061114 | 91 | 48 | 3.0 | 3.0 | 0.00 | 0.00 | 0.21 | 59 | 1008.0 |
| 20260505060615 | 91 | 31 | 2.0 | 2.0 | 0.00 | 0.00 | 0.21 | 59 | 1008.0 |
| 20260505060114 | 91 | 359 | 4.0 | 6.0 | 0.00 | 0.00 | 0.21 | 58 | 1008.0 |
| 20260505055614 | 92 | 40 | 4.0 | 6.0 | 0.00 | 0.00 | 0.21 | 58 | 1008.0 |
| 20260505055116 | 91 | 58 | 2.0 | 2.0 | 0.00 | 0.00 | 0.21 | 60 | 1008.0 |
| 20260505054617 | 90 | 33 | 3.0 | 5.0 | 0.00 | 0.00 | 0.21 | 61 | 1008.0 |
| 20260505054114 | 91 | 66 | 3.0 | 3.0 | 0.00 | 0.00 | 0.21 | 60 | 1008.0 |
| 20260505053615 | 91 | 63 | 0.0 | 0.0 | 0.00 | 0.00 | 0.21 | 58 | 1008.0 |
| 20260505053114 | 90 | 61 | 1.0 | 2.0 | 0.00 | 0.00 | 0.21 | 58 | 1008.0 |
| 20260505052615 | 90 | 32 | 4.0 | 5.0 | 0.00 | 0.00 | 0.21 | 56 | 1008.0 |
| 20260505052115 | 90 | 37 | 4.0 | 5.0 | 0.00 | 0.00 | 0.21 | 58 | 1008.0 |
| 20260505051614 | 91 | 63 | 1.0 | 2.0 | 0.00 | 0.00 | 0.21 | 58 | 1008.0 |
| 20260505051114 | 91 | 68 | 1.0 | 1.0 | 0.00 | 0.00 | 0.21 | 59 | 1008.0 |
| 20260505050614 | 92 | 78 | 0.0 | 0.0 | 0.00 | 0.00 | 0.21 | 55 | 1009.0 |
| 20260505050115 | 92 | 28 | 3.0 | 3.0 | 0.00 | 0.00 | 0.21 | 56 | 1008.0 |
| 20260505041614 | 85 | 64 | 2.0 | 2.0 | 0.00 | 0.00 | 0.21 | 70 | 1009.0 |
| 20260505041115 | 84 | 72 | 3.0 | 3.0 | 0.00 | 0.00 | 0.21 | 72 | 1009.0 |
| 20260505040617 | 84 | 77 | 3.0 | 3.0 | 0.00 | 0.00 | 0.21 | 71 | 1009.0 |
| 20260505040115 | 84 | 68 | 2.0 | 3.0 | 0.00 | 0.00 | 0.21 | 71 | 1009.0 |
| 20260505035615 | 84 | 70 | 2.0 | 3.0 | 0.00 | 0.00 | 0.21 | 72 | 1009.0 |
| 20260505035114 | 84 | 71 | 1.0 | 1.0 | 0.00 | 0.00 | 0.21 | 72 | 1009.0 |
| 20260505034616 | 83 | 67 | 2.0 | 2.0 | 0.00 | 0.00 | 0.21 | 73 | 1009.0 |
| 20260505034115 | 84 | 70 | 1.0 | 1.0 | 0.00 | 0.00 | 0.21 | 74 | 1009.0 |
| 20260505033614 | 84 | 80 | 1.0 | 1.0 | 0.00 | 0.00 | 0.21 | 72 | 1009.0 |
| 20260505033114 | 84 | 66 | 1.0 | 1.0 | 0.00 | 0.00 | 0.21 | 73 | 1009.0 |
| 20260505031115 | 81 | 58 | 1.0 | 1.0 | 0.00 | 0.00 | 0.21 | 80 | 1009.0 |
| 20260505030615 | 81 | 57 | 0.0 | 1.0 | 0.00 | 0.00 | 0.21 | 81 | 1008.0 |
| 20260505030114 | 80 | 48 | 1.0 | 2.0 | 0.00 | 0.00 | 0.21 | 81 | 1008.0 |
| 20260505025614 | 80 | 49 | 1.0 | 2.0 | 0.00 | 0.00 | 0.21 | 83 | 1008.0 |
| 20260505025114 | 80 | 56 | 1.0 | 1.0 | 0.00 | 0.00 | 0.21 | 84 | 1008.0 |
| 20260505024614 | 80 | 58 | 0.0 | 0.0 | 0.00 | 0.00 | 0.21 | 85 | 1008.0 |
| 20260505024114 | 79 | 68 | 2.0 | 2.0 | 0.00 | 0.00 | 0.21 | 85 | 1008.0 |
| 20260505023614 | 79 | 57 | 1.0 | 1.0 | 0.00 | 0.00 | 0.21 | 85 | 1008.0 |
| 20260505023115 | 78 | 53 | 3.0 | 3.0 | 0.00 | 0.00 | 0.21 | 85 | 1008.0 |
| 20260505022615 | 78 | 62 | 1.0 | 2.0 | 0.00 | 0.00 | 0.21 | 86 | 1008.0 |
| 20260505022114 | 78 | 48 | 2.0 | 3.0 | 0.00 | 0.00 | 0.21 | 87 | 1008.0 |
| 20260505021614 | 77 | 55 | 2.0 | 2.0 | 0.00 | 0.00 | 0.21 | 87 | 1007.0 |
| 20260505021115 | 77 | 31 | 3.0 | 3.0 | 0.00 | 0.00 | 0.21 | 88 | 1007.0 |
| 20260505020614 | 77 | 49 | 2.0 | 2.0 | 0.00 | 0.00 | 0.21 | 88 | 1008.0 |
| 20260505020114 | 77 | 59 | 1.0 | 2.0 | 0.00 | 0.00 | 0.21 | 89 | 1008.0 |
| 20260505015614 | 77 | 51 | 2.0 | 2.0 | 0.00 | 0.00 | 0.21 | 89 | 1008.0 |
| 20260505015115 | 77 | 57 | 1.0 | 2.0 | 0.00 | 0.00 | 0.21 | 89 | 1007.0 |
| 20260505014615 | 77 | 49 | 1.0 | 2.0 | 0.00 | 0.00 | 0.21 | 90 | 1007.0 |
| 20260505014114 | 76 | 41 | 2.0 | 2.0 | 0.00 | 0.00 | 0.21 | 90 | 1007.0 |
| 20260505013614 | 76 | 53 | 2.0 | 2.0 | 0.00 | 0.00 | 0.21 | 90 | 1007.0 |
| 20260505013115 | 76 | 54 | 1.0 | 2.0 | 0.00 | 0.00 | 0.21 | 90 | 1007.0 |
| 20260505012614 | 76 | 55 | 1.0 | 1.0 | 0.00 | 0.00 | 0.21 | 90 | 1007.0 |
| 20260505012115 | 76 | 51 | 2.0 | 2.0 | 0.00 | 0.00 | 0.21 | 90 | 1007.0 |
| 20260505011614 | 76 | 43 | 1.0 | 2.0 | 0.00 | 0.00 | 0.21 | 91 | 1007.0 |
| 20260505011114 | 76 | 49 | 1.0 | 1.0 | 0.00 | 0.00 | 0.21 | 91 | 1007.0 |
| 20260505010614 | 76 | 57 | 1.0 | 2.0 | 0.00 | 0.00 | 0.21 | 91 | 1007.0 |
| 20260505010120 | 76 | 39 | 1.0 | 2.0 | 0.00 | 0.00 | 0.21 | 91 | 1007.0 |
| 20260505005614 | 76 | 47 | 2.0 | 2.0 | 0.00 | 0.00 | 0.21 | 91 | 1007.0 |
| 20260505005114 | 76 | 51 | 1.0 | 1.0 | 0.00 | 0.00 | 0.21 | 91 | 1007.0 |
| 20260505004614 | 76 | 40 | 2.0 | 2.0 | 0.00 | 0.00 | 0.21 | 91 | 1007.0 |
| 20260505004114 | 76 | 49 | 1.0 | 2.0 | 0.00 | 0.00 | 0.21 | 91 | 1007.0 |
| 20260504215115 | 76 | 66 | 1.0 | 1.0 | 0.00 | 0.00 | 0.21 | 91 | 1006.0 |
| 20260504214614 | 76 | 69 | 2.0 | 2.0 | 0.00 | 0.00 | 0.21 | 91 | 1006.0 |
| 20260504214114 | 75 | 60 | 2.0 | 2.0 | 0.00 | 0.00 | 0.21 | 91 | 1006.0 |
| 20260504213614 | 75 | 62 | 1.0 | 1.0 | 0.00 | 0.00 | 0.21 | 91 | 1006.0 |
| 20260504213114 | 75 | 73 | 2.0 | 3.0 | 0.00 | 0.00 | 0.21 | 91 | 1006.0 |
| 20260504212615 | 75 | 58 | 1.0 | 1.0 | 0.00 | 0.00 | 0.21 | 91 | 1006.0 |
| 20260504212114 | 75 | 59 | 2.0 | 2.0 | 0.00 | 0.00 | 0.21 | 91 | 1006.0 |
| 20260504211616 | 75 | 58 | 1.0 | 1.0 | 0.07 | 0.00 | 0.21 | 91 | 1006.0 |
| 20260504211114 | 75 | 51 | 2.0 | 3.0 | 0.07 | 0.00 | 0.21 | 91 | 1006.0 |
| 20260504210614 | 75 | 56 | 1.0 | 1.0 | 0.07 | 0.00 | 0.21 | 90 | 1006.0 |
| 20260504210114 | 75 | 53 | 1.0 | 1.0 | 0.00 | 0.00 | 0.20 | 90 | 1006.0 |
| 20260504205615 | 75 | 59 | 1.0 | 1.0 | 0.05 | 0.00 | 0.20 | 90 | 1006.0 |
| 20260504205114 | 75 | 59 | 1.0 | 1.0 | 0.05 | 0.00 | 0.20 | 90 | 1006.0 |
| 20260504204614 | 75 | 70 | 1.0 | 1.0 | 0.07 | 0.00 | 0.19 | 90 | 1006.0 |
| 20260504204115 | 75 | 43 | 4.0 | 5.0 | 0.12 | 0.00 | 0.19 | 90 | 1007.0 |
| 20260504203615 | 75 | 65 | 1.0 | 1.0 | 0.05 | 0.00 | 0.18 | 90 | 1007.0 |
| 20260504203114 | 75 | 61 | 1.0 | 1.0 | 0.07 | 0.00 | 0.17 | 90 | 1007.0 |
| 20260504202615 | 75 | 54 | 4.0 | 6.0 | 0.12 | 0.00 | 0.17 | 90 | 1007.0 |
| 20260504202114 | 75 | 48 | 3.0 | 3.0 | 0.12 | 0.00 | 0.16 | 90 | 1007.0 |
| 20260504201614 | 75 | 52 | 1.0 | 2.0 | 0.19 | 0.00 | 0.15 | 90 | 1007.0 |
| 20260504201114 | 75 | 27 | 3.0 | 6.0 | 0.19 | 0.00 | 0.14 | 90 | 1007.0 |
| 20260504200615 | 75 | 65 | 2.0 | 2.0 | 0.12 | 0.00 | 0.12 | 90 | 1007.0 |
| 20260504200115 | 75 | 60 | 2.0 | 2.0 | 0.12 | 0.00 | 0.11 | 90 | 1007.0 |
| 20260504195615 | 75 | 62 | 1.0 | 2.0 | 0.19 | 0.00 | 0.10 | 90 | 1007.0 |
| 20260504195114 | 75 | 52 | 3.0 | 3.0 | 0.17 | 0.00 | 0.09 | 90 | 1007.0 |
| 20260504160115 | 85 | 100 | 2.0 | 2.0 | 0.00 | 0.00 | 0.00 | 76 | 1008.0 |
| 20260504151115 | 85 | 57 | 1.0 | 1.0 | 0.00 | 0.00 | 0.00 | 73 | 1006.0 |
| 20260504150614 | 85 | 54 | 1.0 | 1.0 | 0.00 | 0.00 | 0.00 | 73 | 1006.0 |
| 20260504150117 | 85 | 40 | 3.0 | 3.0 | 0.00 | 0.00 | 0.00 | 73 | 1006.0 |
| 20260504141115 | 86 | 63 | 2.0 | 3.0 | 0.00 | 0.00 | 0.00 | 73 | 1005.0 |
| 20260504140615 | 86 | 10 | 4.0 | 7.0 | 0.00 | 0.00 | 0.00 | 73 | 1005.0 |
| 20260504140115 | 87 | 20 | 1.0 | 3.0 | 0.00 | 0.00 | 0.00 | 73 | 1005.0 |
| 20260504130615 | 88 | 51 | 1.0 | 2.0 | 0.00 | 0.00 | 0.00 | 72 | 1004.0 |
| 20260504130116 | 88 | 54 | 1.0 | 1.0 | 0.00 | 0.00 | 0.00 | 71 | 1004.0 |
| 20260504120114 | 92 | 62 | 2.0 | 2.0 | 0.00 | 0.00 | 0.00 | 69 | 1003.0 |
| 20260504110615 | 95 | 60 | 0.0 | 0.0 | 0.00 | 0.00 | 0.00 | 57 | 1003.0 |
| 20260504110114 | 96 | 46 | 2.0 | 2.0 | 0.00 | 0.00 | 0.00 | 55 | 1003.0 |
| 20260504100614 | 96 | 45 | 2.0 | 2.0 | 0.00 | 0.00 | 0.00 | 55 | 1003.0 |
| 20260504100114 | 95 | 61 | 1.0 | 1.0 | 0.00 | 0.00 | 0.00 | 56 | 1003.0 |
| 20260504090114 | 95 | 47 | 3.0 | 5.0 | 0.00 | 0.00 | 0.00 | 57 | 1004.0 |